TimeAKDT,TemperatureF,Dew PointF,Humidity,Sea Level PressureIn,VisibilityMPH,Wind Direction,Wind SpeedMPH,Gust SpeedMPH,PrecipitationIn,Events,Conditions,WindDirDegrees,DateUTC
12:16 AM,48.2,37.4,66,29.78,10.0,East,6.9,-,N/A,,Overcast,90,2012-09-25 08:16:00
12:36 AM,48.2,35.6,62,29.77,10.0,East,10.4,-,N/A,,Overcast,80,2012-09-25 08:36:00
12:56 AM,48.2,37.4,66,29.77,10.0,ENE,9.2,-,N/A,,Overcast,60,2012-09-25 08:56:00
1:16 AM,48.2,35.6,62,29.76,10.0,East,9.2,-,N/A,,Overcast,80,2012-09-25 09:16:00
1:36 AM,48.2,35.6,62,29.76,10.0,ENE,5.8,-,N/A,,Overcast,70,2012-09-25 09:36:00
1:56 AM,48.2,35.6,62,29.75,10.0,ENE,9.2,-,N/A,,Overcast,70,2012-09-25 09:56:00
2:16 AM,48.2,35.6,62,29.74,10.0,ENE,9.2,-,N/A,,Overcast,70,2012-09-25 10:16:00
2:36 AM,48.2,35.6,62,29.73,10.0,ENE,9.2,-,N/A,,Overcast,70,2012-09-25 10:36:00
2:56 AM,48.2,35.6,62,29.72,10.0,ENE,9.2,16.1,N/A,,Overcast,70,2012-09-25 10:56:00
3:16 AM,48.2,35.6,62,29.71,10.0,East,11.5,-,N/A,,Mostly Cloudy,80,2012-09-25 11:16:00
3:36 AM,48.2,35.6,62,29.70,10.0,ENE,10.4,-,N/A,,Overcast,70,2012-09-25 11:36:00
3:56 AM,48.2,35.6,62,29.70,10.0,ENE,11.5,21.9,N/A,,Scattered Clouds,70,2012-09-25 11:56:00
4:16 AM,48.2,35.6,62,29.69,10.0,ENE,11.5,-,N/A,,Partly Cloudy,70,2012-09-25 12:16:00
4:36 AM,48.2,35.6,62,29.68,10.0,ENE,9.2,-,N/A,,Mostly Cloudy,70,2012-09-25 12:36:00
4:56 AM,48.2,35.6,62,29.67,10.0,ENE,10.4,-,N/A,,Scattered Clouds,60,2012-09-25 12:56:00
5:16 AM,48.2,35.6,62,29.66,10.0,ENE,11.5,16.1,N/A,,Partly Cloudy,60,2012-09-25 13:16:00
5:36 AM,48.2,35.6,62,29.65,10.0,NE,11.5,16.1,N/A,,Partly Cloudy,50,2012-09-25 13:36:00
5:56 AM,48.2,35.6,62,29.64,10.0,NE,13.8,20.7,N/A,,Partly Cloudy,40,2012-09-25 13:56:00
6:16 AM,48.2,35.6,62,29.63,10.0,NE,10.4,-,N/A,,Scattered Clouds,50,2012-09-25 14:16:00
6:36 AM,48.2,35.6,62,29.62,10.0,NE,11.5,17.3,N/A,,Mostly Cloudy,50,2012-09-25 14:36:00
6:56 AM,48.2,35.6,62,29.61,10.0,ENE,13.8,17.3,N/A,,Mostly Cloudy,60,2012-09-25 14:56:00
7:16 AM,48.2,35.6,62,29.59,10.0,NE,10.4,-,N/A,,Mostly Cloudy,50,2012-09-25 15:16:00
7:36 AM,46.4,37.4,71,29.57,10.0,NNE,8.1,-,N/A,,Scattered Clouds,30,2012-09-25 15:36:00
7:56 AM,46.4,37.4,71,29.57,10.0,NNE,9.2,-,N/A,,Clear,30,2012-09-25 15:56:00
8:16 AM,46.4,37.4,71,29.56,10.0,NE,6.9,-,N/A,,Clear,40,2012-09-25 16:16:00
8:36 AM,46.4,37.4,71,29.55,10.0,NE,11.5,-,N/A,,Partly Cloudy,50,2012-09-25 16:36:00
8:56 AM,46.4,37.4,71,29.55,10.0,NE,9.2,-,N/A,,Partly Cloudy,40,2012-09-25 16:56:00
9:16 AM,46.4,37.4,71,29.54,10.0,NNE,8.1,-,N/A,,Clear,30,2012-09-25 17:16:00
9:36 AM,46.4,37.4,71,29.53,10.0,NNE,8.1,-,N/A,,Partly Cloudy,30,2012-09-25 17:36:00
9:56 AM,46.4,37.4,71,29.52,10.0,NNE,5.8,-,N/A,,Partly Cloudy,30,2012-09-25 17:56:00
10:16 AM,48.2,39.2,71,29.52,10.0,NE,10.4,-,N/A,,Scattered Clouds,40,2012-09-25 18:16:00
11:16 AM,48.2,39.2,71,29.48,10.0,NE,9.2,-,N/A,,Overcast,40,2012-09-25 19:16:00
11:36 AM,50.0,37.4,62,29.46,10.0,NE,9.2,16.1,N/A,,Mostly Cloudy,50,2012-09-25 19:36:00
11:56 AM,50.0,37.4,62,29.45,10.0,NNE,8.1,17.3,N/A,,Partly Cloudy,30,2012-09-25 19:56:00
12:16 PM,51.8,37.4,58,29.44,10.0,NE,12.7,17.3,N/A,,Mostly Cloudy,40,2012-09-25 20:16:00
12:36 PM,51.8,37.4,58,29.42,10.0,NNE,9.2,17.3,N/A,,Overcast,30,2012-09-25 20:36:00
12:56 PM,51.8,37.4,58,29.41,10.0,NE,10.4,18.4,N/A,,Overcast,40,2012-09-25 20:56:00
1:16 PM,51.8,37.4,58,29.40,10.0,NNE,13.8,17.3,N/A,,Overcast,30,2012-09-25 21:16:00
1:36 PM,51.8,37.4,58,29.38,10.0,NNE,11.5,20.7,N/A,,Overcast,20,2012-09-25 21:36:00
1:56 PM,51.8,39.2,62,29.37,6.0,NNE,9.2,17.3,N/A,,Overcast,20,2012-09-25 21:56:00
2:16 PM,51.8,39.2,62,29.36,10.0,NNE,12.7,19.6,N/A,,Overcast,30,2012-09-25 22:16:00
2:36 PM,53.6,37.4,54,29.34,10.0,NE,17.3,26.5,N/A,,Overcast,40,2012-09-25 22:36:00
2:56 PM,53.6,37.4,54,29.33,10.0,NNE,13.8,21.9,N/A,,Overcast,30,2012-09-25 22:56:00
3:16 PM,53.6,37.4,54,29.32,10.0,NE,17.3,24.2,N/A,,Overcast,40,2012-09-25 23:16:00
3:36 PM,53.6,37.4,54,29.30,10.0,NE,17.3,24.2,N/A,,Overcast,50,2012-09-25 23:36:00
3:56 PM,53.6,37.4,54,29.28,10.0,NE,17.3,23.0,N/A,,Overcast,50,2012-09-25 23:56:00
4:16 PM,53.6,35.6,51,29.27,10.0,NE,17.3,24.2,N/A,,Overcast,50,2012-09-26 00:16:00
4:36 PM,53.6,35.6,51,29.26,10.0,NE,15.0,25.3,N/A,,Overcast,50,2012-09-26 00:36:00
4:56 PM,53.6,37.4,54,29.24,10.0,NE,15.0,24.2,N/A,,Overcast,40,2012-09-26 00:56:00
5:16 PM,51.8,37.4,58,29.23,10.0,NE,15.0,26.5,N/A,,Overcast,50,2012-09-26 01:16:00
5:36 PM,51.8,37.4,58,29.23,10.0,NE,15.0,29.9,N/A,,Overcast,40,2012-09-26 01:36:00
5:56 PM,51.8,37.4,58,29.21,10.0,NE,17.3,26.5,N/A,,Overcast,40,2012-09-26 01:56:00
6:16 PM,51.8,37.4,58,29.20,10.0,NE,16.1,27.6,N/A,,Overcast,50,2012-09-26 02:16:00
6:36 PM,51.8,37.4,58,29.18,10.0,NE,13.8,26.5,N/A,,Overcast,40,2012-09-26 02:36:00
6:56 PM,51.8,37.4,58,29.18,10.0,NE,15.0,21.9,N/A,,Overcast,50,2012-09-26 02:56:00
7:16 PM,50.0,37.4,62,29.17,10.0,NE,13.8,18.4,N/A,,Overcast,50,2012-09-26 03:16:00
7:36 PM,50.0,37.4,62,29.16,10.0,NE,11.5,21.9,N/A,,Overcast,40,2012-09-26 03:36:00
7:56 PM,50.0,37.4,62,29.15,10.0,NE,13.8,19.6,N/A,,Mostly Cloudy,50,2012-09-26 03:56:00
8:36 PM,50.0,35.6,58,29.16,10.0,ENE,13.8,19.6,N/A,,Scattered Clouds,60,2012-09-26 04:36:00
8:56 PM,48.2,35.6,62,29.17,10.0,East,12.7,18.4,N/A,,Mostly Cloudy,80,2012-09-26 04:56:00
9:16 PM,48.2,35.6,62,29.17,10.0,East,17.3,20.7,N/A,,Overcast,90,2012-09-26 05:16:00
9:36 PM,48.2,35.6,62,29.19,10.0,East,12.7,21.9,N/A,,Mostly Cloudy,80,2012-09-26 05:36:00
9:56 PM,48.2,35.6,62,29.19,10.0,East,17.3,-,N/A,,Mostly Cloudy,90,2012-09-26 05:56:00
10:16 PM,46.4,35.6,66,29.21,10.0,East,8.1,-,N/A,,Scattered Clouds,90,2012-09-26 06:16:00
10:36 PM,46.4,35.6,66,29.22,10.0,East,12.7,-,N/A,,Scattered Clouds,90,2012-09-26 06:36:00
10:56 PM,46.4,37.4,71,29.24,10.0,East,8.1,-,N/A,,Mostly Cloudy,100,2012-09-26 06:56:00
11:16 PM,44.6,35.6,71,29.25,10.0,East,8.1,-,N/A,,Scattered Clouds,100,2012-09-26 07:16:00
11:36 PM,44.6,37.4,76,29.27,10.0,Calm,Calm,-,N/A,,Mostly Cloudy,0,2012-09-26 07:36:00
11:56 PM,44.6,35.6,71,29.28,10.0,SSE,3.5,-,N/A,,Overcast,150,2012-09-26 07:56:00